Station PXOC1 - 9414311 - San Francisco Pier 1, CA Image indicating link to RSS feed of recent meteorological observations for station PXOC1


Conditions at PXOC1 as of
(1:30 pm PDT)
2030 GMT on 05/22/2024:
     

Click on the graph icon in the table below to see a time series plot of the last five days of that observation.

5-day plot - Wind Direction Wind Direction (WDIR):WSW ( 250 deg true )
5-day plot - Wind Speed Wind Speed (WSPD): 6.0 kts
5-day plot - Wind Gust Wind Gust (GST): 12.0 kts
5-day plot - Atmospheric Pressure Atmospheric Pressure (PRES):29.93 in
5-day plot - Air Temperature Air Temperature (ATMP): 66.7 °F
5-day plot - Wind Speed at 10 Meters Wind Speed at 10 meters (WSPD10M): 5.8 kts
5-day plot - Wind Speed at 20 Meters Wind Speed at 20 meters (WSPD20M): 7.8 kts
5-day plot -  Wind Speed, Wind Gust and Atmospheric Pressure Combined plot of Wind Speed, Gust, and Air Pressure
NOS Water Level Observation Network Water Level
Previous observations
TIME
(PDT)
5-day plot - Wind Direction
WDIR
 
5-day plot - Wind Speed
WSPD
kts
5-day plot - Wind Gust
GST
kts
5-day plot - Wave Height
WVHT
ft
5-day plot - Dominant Wave Period
DPD
sec
5-day plot - Average Wave Period
APD
sec
5-day plot - Mean Wave Direction
MWD
 
5-day plot - Atmospheric Pressure
PRES
in
5-day plot - Pressure Tendency
PTDY
in
5-day plot - Air Temperature
ATMP
°F
5-day plot - Water Temperature
WTMP
°F
5-day plot - Dew Point
DEWP
°F
5-day plot - Salinity
SAL
psu
5-day plot - Visibility
VIS
nmi
5-day plot - Tide (above MLLW)
TIDE
ft
2024-05-22 01:24 pm SW 1.9 5.1----29.93- 68.0-----
2024-05-22 01:18 pmWSW 1.0 8.0----29.93- 66.9-----
2024-05-22 01:12 pm SW 4.1 8.9----29.93- 65.8-----
2024-05-22 01:06 pm W 7.0 11.1----29.93- 65.1-----
2024-05-22 01:00 pm W 6.0 8.0----29.93+0.00 65.5-----
2024-05-22 12:54 pm W 5.1 8.9----29.93- 65.7-----
2024-05-22 12:48 pm S 2.9 8.0----29.93- 65.3-----
2024-05-22 12:42 pmWSW 2.9 9.9----29.93- 65.5-----
2024-05-22 12:36 pm W 7.0 8.9----29.93- 64.4-----
2024-05-22 12:30 pm SW 5.1 9.9----29.93- 63.9-----
2024-05-22 12:24 pmWSW 5.1 9.9----29.93- 64.4-----
2024-05-22 12:18 pmWSW 4.1 8.0----29.93- 64.6-----
2024-05-22 12:12 pmWSW 1.9 11.1----29.94- 64.0-----
2024-05-22 12:06 pm W 6.0 8.9----29.94- 63.9-----
2024-05-22 12:00 pmWSW 6.0 9.9----29.94+0.00 63.1-----
2024-05-22 11:54 am SW 1.9 13.0----29.94- 64.0-----
2024-05-22 11:48 amWSW 4.1 9.9----29.94- 64.0-----
2024-05-22 11:42 amWSW 8.0 12.0----29.94- 62.6-----
2024-05-22 11:36 amWNW 7.0 8.9----29.94- 61.2-----
2024-05-22 11:30 am N 7.0 8.0----29.94- 59.0-----
2024-05-22 11:24 amNNW 7.0 9.9----29.94- 59.5-----
2024-05-22 11:18 am NW 5.1 6.0------------
2024-05-22 11:12 am- 0.0 5.1------------
2024-05-22 11:06 amESE 5.1 11.1------------
2024-05-22 11:00 amESE 8.9 9.9------------
2024-05-22 10:54 amESE 9.9 11.1------------
2024-05-22 10:48 am SE 11.1 12.0------------
2024-05-22 10:42 am SE 11.1 12.0------------
2024-05-22 10:36 am SE 11.1 13.0------------
2024-05-22 10:30 am SE 11.1 13.0----29.93-------
2024-05-22 10:24 am SE 9.9 14.0----29.93-------
2024-05-22 10:18 am SE 12.0 13.0------------
2024-05-22 10:12 am SE 9.9 13.0------------
2024-05-22 10:06 amSSE 8.0 9.9------------
2024-05-22 10:00 am S 4.1 8.9----29.93+0.02------
2024-05-22 09:54 amSSE 7.0 8.9----29.93-------
2024-05-22 09:48 am SE 7.0 11.1------------
2024-05-22 09:42 amSSE 5.1 7.0------------
2024-05-22 09:36 am W 1.9 4.1------------
2024-05-22 09:30 amSSE 1.0 2.9------------
2024-05-22 09:24 am N 1.9 2.9------------
2024-05-22 09:18 am N 1.9 5.1------ 57.4-----
2024-05-22 09:12 amNNW 4.1 5.1------ 56.8-----
2024-05-22 09:06 amNNW 4.1 5.1------ 56.5-----
2024-05-22 09:00 amNNW 4.1 5.1----29.93+0.02 56.5-----
2024-05-22 08:54 amNNW 4.1 5.1----29.93- 56.3-----
2024-05-22 08:48 am N 2.9 4.1----29.93- 56.5-----
2024-05-22 08:42 amNNW 2.9 5.1----29.93- 55.9-----
2024-05-22 08:36 amNNW 4.1 5.1----29.93- 55.8-----
2024-05-22 08:30 amNNW 5.1 6.0----29.93- 55.8-----
2024-05-22 08:24 am N 5.1 5.1----29.93- 55.6-----
2024-05-22 08:18 amNNW 4.1 5.1----29.93- 55.8-----
2024-05-22 08:12 am NE 1.9 4.1----29.93- 56.7-----
2024-05-22 08:06 am N 2.9 4.1----29.92- 55.8-----
2024-05-22 08:00 amENE 1.9 4.1----29.92+0.01 55.9-----
2024-05-22 07:54 amESE 2.9 4.1----29.92- 55.6-----
2024-05-22 07:48 amESE 4.1 5.1----29.92-------
2024-05-22 07:42 amESE 4.1 5.1----29.92-------
2024-05-22 07:36 am N 2.9 4.1----29.92-------
2024-05-22 07:30 am N 1.9 2.9------------
2024-05-22 07:24 am NE 1.0 1.9------------
2024-05-22 07:18 am N 1.0 1.9------------
2024-05-22 07:12 am- 0.0 1.9------------
2024-05-22 07:06 amENE 1.0 1.9------------
2024-05-22 07:00 amENE 1.0 2.9----29.91+0.00 54.7-----
2024-05-22 06:54 am E 1.9 4.1----29.91- 54.1-----
2024-05-22 06:48 am E 4.1 5.1----29.91-------
2024-05-22 06:42 amESE 4.1 6.0----29.91-------
2024-05-22 06:36 am SE 5.1 6.0----29.91-------
2024-05-22 06:30 am SE 4.1 8.0------------
2024-05-22 06:24 amSSE 1.9 2.9------------
2024-05-22 06:18 am E 1.9 5.1----29.90-------
2024-05-22 06:12 am S 4.1 5.1----29.91-------
2024-05-22 06:06 am N 1.9 4.1----29.91-------
2024-05-22 06:00 am- 0.0 4.1----29.91-0.01 53.2-----
2024-05-22 05:54 am E 1.0 6.0----29.91- 53.4-----
2024-05-22 05:48 amESE 2.9 5.1----29.90- 53.4-----
2024-05-22 05:42 am SE 2.9 8.0----29.90- 53.4-----
2024-05-22 05:36 am SE 6.0 9.9----29.90- 53.2-----
2024-05-22 05:30 am SE 7.0 8.0----29.90- 53.2-----
2024-05-22 05:24 am SE 5.1 7.0----29.91- 53.2-----
2024-05-22 05:18 am SE 6.0 8.9----29.91- 53.4-----
2024-05-22 05:12 am- 0.0 6.0----29.91- 53.2-----
2024-05-22 05:06 amESE 4.1 6.0----29.91- 53.2-----
2024-05-22 05:00 am SE 2.9 6.0----29.91-0.01 53.1-----
2024-05-22 04:54 amSSE 1.0 4.1----29.91- 53.1-----
2024-05-22 04:48 amNNW 1.0 4.1----29.91- 53.2-----
2024-05-22 04:42 amSSE 5.1 8.0----29.91- 53.2-----
2024-05-22 04:36 amESE 2.9 6.0----29.91- 53.6-----
2024-05-22 04:30 am SE 2.9 5.1----29.91- 53.6-----
2024-05-22 04:24 am E 1.0 6.0----29.91- 53.4-----
2024-05-22 04:18 am SW 1.9 5.1----29.91- 53.4-----
2024-05-22 04:12 am- 0.0 1.0----29.91- 53.6-----
2024-05-22 04:06 amNNW 1.0 4.1----29.91- 53.4-----
2024-05-22 04:00 am NW 1.9 4.1----29.91-0.02 53.6-----
2024-05-22 03:54 am SW 1.0 2.9----29.91- 53.6-----
2024-05-22 03:48 am E 1.9 2.9----29.91- 53.8-----
2024-05-22 03:42 am S 2.9 5.1----29.91- 53.4-----
2024-05-22 03:36 amSSE 4.1 5.1----29.91- 53.6-----
2024-05-22 03:30 am- 0.0 2.9----29.91- 53.4-----
2024-05-22 03:24 am- 0.0 4.1----29.91- 53.4-----
2024-05-22 03:18 am E 2.9 2.9----29.91- 53.4-----
2024-05-22 03:12 am SE 2.9 4.1----29.91- 53.6-----
2024-05-22 03:06 am- 0.0 4.1----29.91- 53.6-----
2024-05-22 03:00 am S 4.1 8.0----29.92-0.01 53.6-----
2024-05-22 02:54 amESE 5.1 7.0----29.91- 53.6-----
2024-05-22 02:48 am E 4.1 7.0----29.92- 53.4-----
2024-05-22 02:42 amSSW 1.0 8.0----29.92- 53.4-----
2024-05-22 02:36 am S 2.9 8.0----29.92- 53.2-----
2024-05-22 02:30 am W 1.9 6.0----29.92- 53.4-----
2024-05-22 02:24 am SE 1.9 6.0----29.92- 53.6-----
2024-05-22 02:18 am SE 5.1 6.0----29.92- 53.8-----
2024-05-22 02:12 am- 0.0 7.0----29.92- 53.4-----
2024-05-22 02:06 amWSW 1.9 8.0----29.92- 53.4-----
2024-05-22 02:00 amWNW 1.9 8.9----29.93-0.01 53.6-----
2024-05-22 01:54 amESE 1.9 4.1----29.92- 53.8-----
2024-05-22 01:48 amWSW 1.9 5.1----29.93- 53.8-----
2024-05-22 01:42 am- 0.0 4.1----29.93- 53.8-----
2024-05-22 01:36 am- 0.0 5.1----29.92- 53.8-----
2024-05-22 01:30 amESE 2.9 6.0----29.92- 53.8-----
2024-05-22 01:24 amSSW 4.1 6.0----29.93- 53.6-----
2024-05-22 01:18 amSSW 2.9 9.9----29.93- 53.6-----
2024-05-22 01:12 amWSW 7.0 9.9----29.93- 53.6-----
2024-05-22 01:06 amWSW 4.1 9.9----29.93- 53.6-----
2024-05-22 01:00 am W 5.1 9.9----29.93+0.00 53.6-----
2024-05-22 12:54 am W 2.9 7.0----29.93- 53.6-----
2024-05-22 12:48 amWSW 5.1 8.9----29.93- 53.8-----
2024-05-22 12:42 amSSE 2.9 8.0----29.93- 54.0-----
2024-05-22 12:36 am W 1.9 6.0----29.93- 54.0-----
2024-05-22 12:30 amESE 1.9 7.0----29.93- 54.1-----
2024-05-22 12:24 am E 1.9 7.0----29.93- 54.0-----
2024-05-22 12:18 amSSW 6.0 11.1----29.93- 54.0-----
2024-05-22 12:12 amWSW 1.9 2.9----29.93- 54.0-----
2024-05-22 12:06 amWNW 2.9 6.0----29.93- 54.0-----
2024-05-22 12:00 am S 4.1 9.9----29.93+0.01 54.1-----
2024-05-21 11:54 pm S 1.9 6.0----29.93- 54.1-----
2024-05-21 11:48 pm W 1.9 8.9----29.93- 54.1-----
2024-05-21 11:42 pmWSW 4.1 8.0----29.93- 54.1-----
2024-05-21 11:36 pm W 4.1 7.0----29.93- 54.0-----
2024-05-21 11:30 pmSSE 1.9 4.1----29.93- 54.1-----
2024-05-21 11:24 pmSSW 1.9 9.9----29.93- 54.0-----
2024-05-21 11:18 pm W 7.0 15.0----29.94- 54.0-----
2024-05-21 11:12 pm W 5.1 14.0----29.94- 54.0-----
2024-05-21 11:06 pmWSW 2.9 8.0----29.94- 54.1-----
2024-05-21 11:00 pmWSW 2.9 15.9----29.94+0.02 54.1-----
2024-05-21 10:54 pmWSW 8.9 14.0----29.94- 54.1-----
2024-05-21 10:48 pmWSW 6.0 13.0----29.93- 54.5-----
2024-05-21 10:42 pmWSW 8.0 13.0----29.93- 54.5-----
2024-05-21 10:36 pm W 5.1 8.9----29.93- 54.7-----
2024-05-21 10:30 pmWSW 4.1 7.0----29.93- 54.9-----
2024-05-21 10:24 pm W 1.9 6.0----29.93- 54.9-----
2024-05-21 10:18 pmWNW 1.9 7.0----29.93- 54.9-----
2024-05-21 10:12 pm W 4.1 7.0----29.93- 54.9-----
2024-05-21 10:06 pmWSW 6.0 8.9----29.93- 54.7-----
2024-05-21 10:00 pmWSW 4.1 12.0----29.93+0.03 54.7-----
2024-05-21 09:54 pmWSW 8.9 13.0----29.93- 54.7-----
2024-05-21 09:48 pm W 6.0 9.9----29.93- 54.9-----
2024-05-21 09:42 pmWSW 6.0 9.9----29.93- 55.0-----
2024-05-21 09:36 pmWSW 1.9 5.1----29.92- 55.4-----
2024-05-21 09:30 pm SW 1.9 7.0----29.92- 55.6-----
2024-05-21 09:24 pm N 1.0 2.9----29.92- 56.1-----
2024-05-21 09:18 pm SW 1.9 4.1----29.92- 56.1-----
2024-05-21 09:12 pm E 1.0 4.1----29.92- 56.3-----
2024-05-21 09:06 pm E 2.9 5.1----29.92- 56.5-----
2024-05-21 09:00 pmSSE 1.0 7.0----29.92+0.02 56.7-----
2024-05-21 08:54 pm S 1.0 6.0----29.92- 56.7-----
2024-05-21 08:48 pm SW 4.1 9.9----29.92- 56.7-----
2024-05-21 08:42 pm SW 8.0 17.1----29.92- 56.7-----
2024-05-21 08:36 pm SW 8.9 14.0----29.92- 56.5-----
2024-05-21 08:30 pm SW 9.9 14.0----29.92- 56.7-----
2024-05-21 08:24 pmWSW 7.0 12.0----29.92- 56.7-----
2024-05-21 08:18 pm SW 8.0 11.1----29.92- 56.8-----
2024-05-21 08:12 pmWSW 7.0 12.0----29.92- 56.8-----
2024-05-21 08:06 pmWSW 7.0 12.0----29.91- 57.2-----
2024-05-21 08:00 pm SW 5.1 9.9----29.91+0.01 57.6-----
2024-05-21 07:54 pmWSW 6.0 11.1----29.91- 57.9-----
2024-05-21 07:48 pmWSW 5.1 8.9----29.91- 58.3-----
2024-05-21 07:42 pmWSW 7.0 12.0----29.91- 58.1-----
2024-05-21 07:36 pm W 6.0 9.9----29.91- 58.5-----
2024-05-21 07:30 pmWSW 5.1 14.0----29.91- 58.8-----
2024-05-21 07:24 pmWSW 8.0 13.0----29.91- 59.4-----
2024-05-21 07:18 pm SW 8.0 15.0----29.90- 59.7-----
2024-05-21 07:12 pm SW 7.0 12.0----29.90- 59.7-----
2024-05-21 07:06 pmWSW 7.0 15.0----29.90- 59.7-----
2024-05-21 07:00 pmWSW 11.1 19.0----29.90-0.01 59.5-----
2024-05-21 06:54 pmWSW 12.0 18.1----29.90- 59.5-----
2024-05-21 06:48 pmWSW 12.0 18.1----29.90- 59.4-----
2024-05-21 06:42 pmWSW 11.1 15.9----29.90- 60.3-----
2024-05-21 06:36 pmWSW 13.0 20.0----29.91- 59.5-----
2024-05-21 06:30 pmWSW 14.0 18.1----29.91- 59.5-----
2024-05-21 06:24 pm W 11.1 17.1----29.91- 60.3-----
2024-05-21 06:18 pm W 11.1 15.9----29.91- 60.8-----
2024-05-21 06:12 pm W 8.9 17.1----29.91- 62.1-----
2024-05-21 06:06 pm W 12.0 15.9----29.90- 63.0-----
2024-05-21 06:00 pm W 11.1 17.1----29.90-0.02 64.0-----
2024-05-21 05:54 pm W 8.9 15.9----29.90- 64.4-----
2024-05-21 05:48 pm W 8.9 15.0----29.90- 64.6-----
2024-05-21 05:42 pm W 8.0 15.0----29.90- 64.8-----
2024-05-21 05:36 pm W 8.9 15.0----29.90- 64.9-----
2024-05-21 05:30 pm W 11.1 17.1----29.91- 65.1-----
2024-05-21 05:24 pm W 8.0 15.0----29.90- 66.0-----
2024-05-21 05:18 pmWSW 11.1 17.1----29.90- 66.7-----
2024-05-21 05:12 pm W 11.1 15.9----29.90- 66.9-----
2024-05-21 05:06 pm W 11.1 15.9----29.90- 67.5-----
2024-05-21 05:00 pmWSW 8.9 14.0----29.90-0.04 68.0-----
2024-05-21 04:54 pmWSW 11.1 17.1----29.91- 67.1-----
2024-05-21 04:48 pm W 11.1 17.1----29.91- 66.2-----
2024-05-21 04:42 pmWSW 12.0 19.0----29.91- 66.7-----
2024-05-21 04:36 pmWSW 11.1 19.0----29.91- 66.6-----
2024-05-21 04:30 pm W 11.1 15.9----29.91- 68.2-----
2024-05-21 04:24 pmWSW 12.0 19.0----29.90- 67.6-----
2024-05-21 04:18 pmWSW 15.0 22.0----29.91- 66.7-----
2024-05-21 04:12 pmWSW 13.0 21.0----29.91- 66.6-----
2024-05-21 04:06 pmWSW 9.9 20.0----29.91- 67.5-----
2024-05-21 04:00 pmWSW 11.1 19.0----29.91-0.04 67.3-----
2024-05-21 03:54 pmWSW 12.0 20.0----29.91- 67.1-----
2024-05-21 03:48 pmWSW 9.9 19.0----29.91- 68.2-----
2024-05-21 03:42 pmWSW 11.1 19.0----29.91- 67.1-----
2024-05-21 03:36 pmWSW 13.0 20.0----29.91- 66.9-----
2024-05-21 03:30 pmWSW 8.9 15.0----29.92- 67.8-----
2024-05-21 03:24 pmWSW 8.0 15.0----29.92- 67.6-----
2024-05-21 03:18 pmWSW 11.1 18.1----29.92- 67.5-----
2024-05-21 03:12 pmWSW 12.0 17.1----29.92- 67.6-----
2024-05-21 03:06 pmWSW 11.1 17.1----29.92- 67.5-----
2024-05-21 03:00 pmWSW 8.0 18.1----29.92-0.04 68.2-----
2024-05-21 02:54 pm W 12.0 19.0----29.92- 66.9-----
2024-05-21 02:48 pmWSW 8.0 12.0----29.92- 68.5-----
2024-05-21 02:42 pmWSW 7.0 9.9----29.92- 69.6-----
2024-05-21 02:36 pm SW 7.0 11.1----29.93- 69.4-----
2024-05-21 02:30 pmWSW 8.0 12.0----29.93-------
2024-05-21 02:24 pmWSW 8.9 14.0----29.93-------
2024-05-21 02:18 pm SW 6.0 12.0----29.93-------
2024-05-21 02:12 pmWSW 5.1 9.9----29.93-------
2024-05-21 02:06 pmWSW 7.0 13.0----29.93-------
2024-05-21 02:00 pm W 9.9 15.9----29.94-0.02 68.5-----
2024-05-21 01:54 pm W 7.0 12.0----29.94- 68.9-----